User: anonymous
Location: Unspecified
(0.0000°N, 0.0000°E)
Time: 17:55:37
(UTC+02:00)
Language:

Cosmos 2219 - Orbit

View from above orbital plane
View from above orbital plane
View from above satellite
View from above satellite

Ground track
Ground track

The orbit data is extracted from the following two-line orbital elements,

1 22219U 92076A   14213.15181626 -.00000290  00000-0 -12887-3 0  5641
2 22219 071.0585 233.0313 0018258 202.7795 221.1544 14.13498723119692
Epoch (UTC): 01 August 2014 03:38:36
Eccentricity: 0.0018258
inclination: 71.0585°
perigee height: 834 km
apogee height: 860 km
right ascension of ascending node: 233.0313°
argument of perigee: 202.7795°
revolutions per day: 14.13498723
mean anomaly at epoch: 221.1544°
orbit number at epoch: 11969

The dashed part of the orbit path shows where the satellite is in the earth's shadow,  

DLR